{"data":{"norad_id":60017,"epoch":"2026-09-21T07:59:01.645152Z","epoch_age_seconds":105650,"freshness":"FRESH","line1":"1 60017U 24111B   26264.33265793  .00000881  00000+0  40147-4 0  9997","line2":"2 60017  53.1602 245.7287 0001366  94.2195 265.8963 15.31705593128968","mean_motion":15.31705593,"eccentricity":0.0001366,"inclination_deg":53.1602,"raan_deg":245.7287,"arg_perigee_deg":94.2195,"mean_anomaly_deg":265.8963,"bstar":4.0147e-5,"rev_number":12896,"period_min":94.012844673343,"perigee_km":469.78776851432,"apogee_km":471.65887715451,"semimajor_km":6848.8603228344,"source":"CELESTRAK","updated_at":"2026-09-22T09:00:49.137373Z"}}